Regional Weather Roundup
Issued by NWS Cleveland, OH

Home | Current Version | Previous Version | Graphics & Text | Print | Product List | Glossary On
Versions: 1 2 3 4 5 6 7 8 9 10 11 12 13 14 15 16 17 18 19 20 21 22 23 24 25 26 27 28 29 30 31 32 33 34 35 36 37 38 39 40 41 42 43 44 45 46 47 48 49 50
000
ASUS41 KCLE 272212
RWRCLE
OHIO REGIONAL WEATHER ROUNDUP
NATIONAL WEATHER SERVICE WILMINGTON, OH
600 PM EDT WED JUL 27 2016

NOTE: "FAIR" INDICATES FEW OR NO CLOUDS BELOW 12,000 FEET WITH NO
SIGNIFICANT WEATHER AND/OR OBSTRUCTIONS TO VISIBILITY.

OHZ001>008-015>018-024>027-034-035-043-044-272300-
   NORTHWEST OHIO

CITY           SKY/WX    TMP DP  RH WIND       PRES   REMARKS
DEFIANCE       FAIR      91  60  35 NE5       29.93F HX  90
FINDLAY        FAIR      90  57  32 W8        29.93F
TOLEDO EXPRESS FAIR      88  64  44 N7        29.94F
TOLEDO EXEC    FAIR      89  60  37 W7        29.94F
LIMA           FAIR      87  65  47 N3        29.95F
$$

OHZ009>014-019>023-028>033-038-089-272300-
   NORTHEAST OHIO

CITY           SKY/WX    TMP DP  RH WIND       PRES   REMARKS
CLE-HOPKINS    FAIR      87  57  35 N9        29.97F
CLE-LAKEFRONT  FAIR      84  67  56 N8        29.94F
CUY CO. ARPT   MOSUNNY  N/A N/A N/A E12       29.97F
LORAIN-ELYRIA  FAIR      85  60  42 N10       29.95F
ASHTABULA      FAIR      83  60  45 N7        29.98S
AKRON-CANTON   FAIR      89  58  34 VRB5      29.95F
WOOSTER        FAIR      87  60  40 N6        29.95F
MANSFIELD      FAIR      88  57  34 SW3       29.97S
YOUNGSTOWN     PTSUNNY   84  60  44 CALM      29.96F
$$

OHZ042-051>053-060>062-070>072-077>081-272300-
  SOUTHWEST OHIO

CITY           SKY/WX    TMP DP  RH WIND       PRES   REMARKS
CINC-COVINGTON PTSUNNY   87  70  56 W7        29.95F HX  92
CINC-LUNKEN    FAIR      87  72  60 SW7       29.93F HX  93
HAMILTON       FAIR      90  69  50 W6        29.94F HX  94
DAYTON         FAIR      88  63  43 W8        29.96F
WRIGHT-PAT AFB MOSUNNY   90  63  40 W8        29.93F HX  90
DAYTON GENERAL PTSUNNY   89  62  40 SW9       29.94F
WILMINGTON     FAIR      89  69  51 SW9       29.94F HX  93
$$

OHZ036-037-039>041-045>050-054>059-063>069-073>076-082>088-272300-
  CENTRAL AND SOUTHEAST OHIO

CITY           SKY/WX    TMP DP  RH WIND       PRES   REMARKS
COLUMBUS       FAIR      88  66  48 VRB5      29.92F HX  90
OSU AIRPORT    PTSUNNY   88  65  46 E5        29.93F HX  90
BOLTON FIELD     N/A     90  68  48 MISG        N/A  HX  93
RICKENBACK AFB FAIR      89  68  50 SW6       29.93S HX  92
NEWARK         FAIR      86  68  54 SW3       29.93F
MARION         FAIR      89  57  33 NW6       29.95F
LANCASTER      FAIR      87  70  56 W5        29.94F HX  92
ZANESVILLE     FAIR      93  64  38 W7        29.93F HX  94
NEW PHILLY     FAIR      94  56  27 W7        29.93F HX  92
$$




USA.gov is the U.S. government's official web portal to all federal, state and local government web resources and services.